Los Alamitos, CA

12:13 AM PDT on October 01, 2016 (GMT -0700)
Los Alamitos Army Air Field

Weather History for KSLI - November, 2012

Change the Weather History Date:

Thursday, November 15, 2012

  Actual Average Record
Temperature  
Mean Temperature 58 °F -  
Max Temperature 66 °F 72 °F 91 °F (2002)
Min Temperature 51 °F 54 °F 48 °F (2015)
Degree Days  
Heating Degree Days 6    
Growing Degree Days 8 (Base 50)    
Moisture  
Dew Point 55 °F    
Average Humidity 96    
Maximum Humidity 100    
Minimum Humidity 56    
Precipitation  
Precipitation 0.00 in - - ()
Sea Level Pressure  
Sea Level Pressure 30.07 in    
Wind  
Wind Speed 3 mph (NE)    
Max Wind Speed 7 mph    
Max Gust Speed -    
Visibility 4 miles    
Events Fog , Rain    
Averages and records for this station are not official NWS values.
T = Trace of Precipitation, MM = Missing Value Source: NWS Daily Summary

Daily Weather History Graph

Daily Weather History Graph

Search for Another Location

Airport or City:

Trip Planner

Search our weather history database for the weather conditions in past years. The results will help you decide how hot, cold, wet, or windy it might be!

Date:

Astronomy

Nov. 15, 2012 Rise Set
Actual Time 6:24 AM PST 4:48 PM PST
Civil Twilight 5:58 AM PST 5:15 PM PST
Nautical Twilight 5:28 AM PST 5:45 PM PST
Astronomical Twilight 4:58 AM PST 6:14 PM PST
Moon 8:22 AM PST (11/15) 6:48 PM PST (11/15)
Length of Visible Light 11h 16m
Length of Day
10h 23m
Waxing Crescent, 5% of the Moon is Illuminated
Nov 15
Waxing Crescent
Nov 20
First Quarter
Nov 28
Full
Dec 6
Last Quarter
Dec 13
New

Hourly Weather History & Observations

Time (PST) Temp. Dew Point Humidity Pressure Visibility Wind Dir Wind Speed Gust Speed Precip Events Conditions
12:03 AM 55.4 °F 55.4 °F 100% 30.02 in 0.2 mi NE 3.5 mph - N/A Fog Fog
12:43 AM 55.4 °F 55.4 °F 100% 30.03 in 0.5 mi Calm Calm - N/A Fog Fog
12:58 AM 55.4 °F 55.4 °F 100% 30.02 in 0.5 mi NNE 2.3 mph - N/A Fog Fog
1:33 AM 55.4 °F 55.4 °F 100% 30.03 in 0.2 mi SW 3.5 mph - N/A Fog Fog
1:58 AM 55.0 °F 55.0 °F 100% 30.05 in 0.2 mi SSW 3.5 mph - N/A Fog Fog
2:18 AM 55.4 °F 55.4 °F 100% 30.03 in 0.5 mi Calm Calm - N/A Fog Fog
2:23 AM 55.4 °F 55.4 °F 100% 30.04 in 0.2 mi Calm Calm - N/A Fog Fog
2:38 AM 55.4 °F 55.4 °F 100% 30.04 in 0.5 mi Calm Calm - N/A Fog Fog
2:58 AM 54.7 °F 54.7 °F 100% 30.05 in 1.0 mi Calm Calm - N/A   Mist
3:03 AM 55.4 °F 55.4 °F 100% 30.04 in 0.8 mi ENE 3.5 mph - N/A   Mist
3:28 AM 55.4 °F 55.4 °F 100% 30.05 in 1.0 mi North 3.5 mph - N/A   Mist
3:43 AM 55.4 °F 55.4 °F 100% 30.05 in 0.8 mi NNE 2.3 mph - N/A   Mist
3:53 AM 55.4 °F 55.4 °F 100% 30.05 in 1.8 mi North 3.5 mph - N/A   Overcast
3:58 AM 55.4 °F 55.4 °F 100% 30.06 in 4.0 mi NNW 4.6 mph - N/A   Overcast
4:03 AM 53.6 °F 53.6 °F 100% 30.06 in 4.0 mi NW 4.6 mph - N/A   Overcast
4:08 AM 53.6 °F 53.6 °F 100% 30.06 in 2.0 mi NW 3.5 mph - N/A   Overcast
4:13 AM 53.6 °F 53.6 °F 100% 30.06 in 1.2 mi WNW 3.5 mph - N/A   Overcast
4:18 AM 53.6 °F 53.6 °F 100% 30.06 in 1.2 mi NW 2.3 mph - N/A   Overcast
4:23 AM 53.6 °F 53.6 °F 100% 30.06 in 1.5 mi NW 3.5 mph - N/A   Overcast
4:33 AM 53.6 °F 53.6 °F 100% 30.06 in 1.0 mi North 2.3 mph - N/A   Mist
4:38 AM 53.6 °F 53.6 °F 100% 30.06 in 0.8 mi Calm Calm - N/A   Mist
4:58 AM 53.4 °F 53.4 °F 100% 30.07 in 0.8 mi Calm Calm - N/A   Mist
5:08 AM 53.6 °F 53.6 °F 100% 30.06 in 0.5 mi Calm Calm - N/A Fog Fog
5:23 AM 53.6 °F 53.6 °F 100% 30.05 in 0.2 mi Variable 1.2 mph - N/A Fog Fog
5:48 AM 51.8 °F 51.8 °F 100% 30.04 in 0.5 mi ENE 4.6 mph - N/A Fog Fog
5:53 AM 51.8 °F 51.8 °F 100% 30.03 in 0.8 mi ENE 3.5 mph - N/A   Mist
5:58 AM 51.8 °F 51.8 °F 100% 30.04 in 1.0 mi ENE 3.5 mph - N/A   Mist
6:03 AM 51.8 °F 51.8 °F 100% 30.03 in 1.0 mi ENE 2.3 mph - N/A   Mostly Cloudy
6:08 AM 51.8 °F 51.8 °F 100% 30.03 in 2.0 mi NE 2.3 mph - N/A   Mostly Cloudy
6:18 AM 51.8 °F 51.8 °F 100% 30.04 in 3.0 mi Calm Calm - N/A   Overcast
6:58 AM 51.1 °F 51.1 °F 100% 30.07 in 4.0 mi West 3.5 mph - N/A   Overcast
7:58 AM 53.4 °F 53.4 °F 100% 30.10 in 7.0 mi SW 4.6 mph - N/A   Overcast
8:58 AM 56.1 °F 56.1 °F 100% 30.10 in 7.0 mi NNE 3.5 mph - N/A   Overcast
9:58 AM 59.0 °F 58.1 °F 97% 30.12 in 10.0 mi Variable 3.5 mph - N/A   Mostly Cloudy
10:58 AM 63.7 °F 56.8 °F 78% 30.10 in 9.0 mi East 5.8 mph - N/A   Overcast
11:58 AM 65.7 °F 54.3 °F 67% 30.12 in 9.0 mi South 5.8 mph - N/A   Overcast
12:58 PM 64.9 °F 57.0 °F 75% 30.10 in 10.0 mi SSE 1.2 mph - N/A   Overcast
1:58 PM 65.3 °F 58.8 °F 80% 30.09 in 10.0 mi South 6.9 mph - N/A   Overcast
2:58 PM 66.6 °F 50.2 °F 56% 30.06 in 10.0 mi ESE 6.9 mph - N/A   Mostly Cloudy
3:58 PM 65.1 °F 50.2 °F 58% 30.07 in 10.0 mi South 4.6 mph - N/A   Mostly Cloudy
4:58 PM 63.9 °F 52.2 °F 66% 30.07 in 10.0 mi South 5.8 mph - N/A   Mostly Cloudy
5:58 PM 62.1 °F 59.2 °F 90% 30.07 in 10.0 mi South 3.5 mph - N/A   Mostly Cloudy
6:58 PM 61.5 °F 61.5 °F 100% 30.09 in 10.0 mi WSW 2.3 mph - N/A   Overcast
7:58 PM 60.6 °F 60.6 °F 100% 30.10 in 10.0 mi Calm Calm - N/A   Mostly Cloudy
8:19 PM 60.8 °F 60.8 °F 100% 30.09 in 10.0 mi East 2.3 mph - N/A Rain Light Rain
8:44 PM 60.8 °F 60.8 °F 100% 30.09 in 7.0 mi Calm Calm - N/A   Mostly Cloudy
8:58 PM 61.0 °F 61.0 °F 100% 30.10 in 7.0 mi NNE 2.3 mph - 0.00 in   Mostly Cloudy
9:58 PM 59.7 °F 59.7 °F 100% 30.10 in 7.0 mi ENE 2.3 mph - 0.00 in   Overcast
10:58 PM 58.6 °F 58.6 °F 100% 30.10 in 8.0 mi North 2.3 mph - N/A   Mostly Cloudy
10:59 PM 59.0 °F 59.0 °F 100% 30.09 in 8.0 mi NNE 2.3 mph - N/A Rain Rain
11:11 PM 59.0 °F 59.0 °F 100% 30.10 in 7.0 mi Calm Calm - N/A   Mostly Cloudy
11:45 PM 59.0 °F 59.0 °F 100% 30.09 in 7.0 mi East 2.3 mph - N/A Rain Light Rain
11:58 PM 59.0 °F 59.0 °F 100% 30.10 in 7.0 mi East 2.3 mph - 0.00 in Rain Light Rain